Multibeam Report for AT30-01


Ship Name: Atlantis
Chief Scientist: Weller, Robert
Woods Hole Oceanographic Institution
Source Organization: Rolling Deck to Repository
Start Date: 2015-08-05
End Date: 2015-09-01


View ISO Metadata

Visit the full NCEI Bathymetry Viewer


Multibeam Bathymetry

Cruise Details

Project: Ocean Observatories Initiative (OOI): Irminger Sea Array
Instrument: Kongsberg EM122

Data Quality

Number of Files: 223
Number of Records: 149592
BATHYMETRY DATA Quantity Percentage
Number of Beams 64620288 100%
Number of Good Beams 60886017 94.22%
Number of Zero Beams 1645 0.0%
Number of Flagged Beams 3732626 5.78%
AMPLITUDE DATA Quantity Percentage
Number of Beams 64620288 100%
Number of Good Beams 60886017 94.22%
Number of Zero Beams 1645 0.0%
Number of Flagged Beams 3732626 5.78%
SIDESCAN DATA Quantity Percentage
Number of Pixels 153174016 100%
Number of Good Pixels 135152347 88.23%
Number of Zero Pixels 0 0%
Number of Flagged Pixels 18021669 11.77%

Navigation Totals

Total Time: 209.6497 hours
Total Track Length: 2495.456 km
Average Speed: 11.903 km/hr (6.4271 knots)

Cruise Bounds

Northern Extent: 61.190277
Southern Extent: 44.00537
Western Extent: -58.6388
Eastern Extent: -39.09461

Limits

Minimum Sonar Depth 1.7004 Maximum Sonar Depth 9.8173
Minimum Altitude 86.8555 Maximum Altitude 4460.2437
Minimum Depth 73.0282 Maximum Depth 4610.0933
Minimum Amplitude 0 Maximum Amplitude 11.7
Minimum Sidescan 0 Maximum Sidescan 12.1

File Information

Full Resolution Bathymetry as collected (raw): 220

Files File Size Description
0000_20150808_140129_Atlantis.all.mb58.gz 317.03MB Kongsberg multibeam vendor format
0001_20150808_150129_Atlantis.all.mb58.gz 176.47MB Kongsberg multibeam vendor format
0002_20150808_160128_Atlantis.all.mb58.gz 144.75MB Kongsberg multibeam vendor format
0003_20150808_170129_Atlantis.all.mb58.gz 44.72MB Kongsberg multibeam vendor format
0004_20150810_183451_Atlantis.all.mb58.gz 7.01MB Kongsberg multibeam vendor format
0005_20150810_184943_Atlantis.all.mb58.gz 60.86MB Kongsberg multibeam vendor format
0006_20150810_194943_Atlantis.all.mb58.gz 46.42MB Kongsberg multibeam vendor format
0007_20150810_204945_Atlantis.all.mb58.gz 44.21MB Kongsberg multibeam vendor format
0008_20150810_214939_Atlantis.all.mb58.gz 42.31MB Kongsberg multibeam vendor format
0009_20150810_224938_Atlantis.all.mb58.gz 41.93MB Kongsberg multibeam vendor format
0010_20150810_234944_Atlantis.all.mb58.gz 42.32MB Kongsberg multibeam vendor format
0011_20150811_004936_Atlantis.all.mb58.gz 42.40MB Kongsberg multibeam vendor format
0012_20150811_014943_Atlantis.all.mb58.gz 42.47MB Kongsberg multibeam vendor format
0013_20150811_024944_Atlantis.all.mb58.gz 42.52MB Kongsberg multibeam vendor format
0014_20150811_034938_Atlantis.all.mb58.gz 42.83MB Kongsberg multibeam vendor format
0015_20150811_044946_Atlantis.all.mb58.gz 42.66MB Kongsberg multibeam vendor format
0016_20150811_054939_Atlantis.all.mb58.gz 42.65MB Kongsberg multibeam vendor format
0017_20150811_064937_Atlantis.all.mb58.gz 42.88MB Kongsberg multibeam vendor format
0018_20150811_074940_Atlantis.all.mb58.gz 42.84MB Kongsberg multibeam vendor format
0019_20150811_084943_Atlantis.all.mb58.gz 43.19MB Kongsberg multibeam vendor format
0020_20150811_094947_Atlantis.all.mb58.gz 43.05MB Kongsberg multibeam vendor format
0021_20150811_104936_Atlantis.all.mb58.gz 42.83MB Kongsberg multibeam vendor format
0022_20150811_114936_Atlantis.all.mb58.gz 43.22MB Kongsberg multibeam vendor format
0023_20150811_124936_Atlantis.all.mb58.gz 43.05MB Kongsberg multibeam vendor format
0024_20150811_134943_Atlantis.all.mb58.gz 42.82MB Kongsberg multibeam vendor format
0025_20150811_144946_Atlantis.all.mb58.gz 42.44MB Kongsberg multibeam vendor format
0026_20150811_154939_Atlantis.all.mb58.gz 42.30MB Kongsberg multibeam vendor format
0027_20150811_164942_Atlantis.all.mb58.gz 42.15MB Kongsberg multibeam vendor format
0028_20150811_174942_Atlantis.all.mb58.gz 43.48MB Kongsberg multibeam vendor format
0029_20150811_184936_Atlantis.all.mb58.gz 39.69MB Kongsberg multibeam vendor format
0030_20150811_194940_Atlantis.all.mb58.gz 40.12MB Kongsberg multibeam vendor format
0031_20150811_204947_Atlantis.all.mb58.gz 41.56MB Kongsberg multibeam vendor format
0032_20150811_214947_Atlantis.all.mb58.gz 42.58MB Kongsberg multibeam vendor format
0033_20150811_224940_Atlantis.all.mb58.gz 42.54MB Kongsberg multibeam vendor format
0034_20150811_234938_Atlantis.all.mb58.gz 42.56MB Kongsberg multibeam vendor format
0035_20150812_004942_Atlantis.all.mb58.gz 42.94MB Kongsberg multibeam vendor format
0036_20150812_014940_Atlantis.all.mb58.gz 42.30MB Kongsberg multibeam vendor format
0037_20150812_024936_Atlantis.all.mb58.gz 42.50MB Kongsberg multibeam vendor format
0038_20150812_034945_Atlantis.all.mb58.gz 42.27MB Kongsberg multibeam vendor format
0039_20150812_044939_Atlantis.all.mb58.gz 41.97MB Kongsberg multibeam vendor format
0040_20150812_054947_Atlantis.all.mb58.gz 41.89MB Kongsberg multibeam vendor format
0041_20150812_064944_Atlantis.all.mb58.gz 41.91MB Kongsberg multibeam vendor format
0042_20150812_074945_Atlantis.all.mb58.gz 42.34MB Kongsberg multibeam vendor format
0043_20150812_084941_Atlantis.all.mb58.gz 42.46MB Kongsberg multibeam vendor format
0044_20150812_094941_Atlantis.all.mb58.gz 42.47MB Kongsberg multibeam vendor format
0045_20150812_104948_Atlantis.all.mb58.gz 42.52MB Kongsberg multibeam vendor format
0046_20150812_114947_Atlantis.all.mb58.gz 42.66MB Kongsberg multibeam vendor format
0047_20150812_124947_Atlantis.all.mb58.gz 42.63MB Kongsberg multibeam vendor format
0048_20150812_134938_Atlantis.all.mb58.gz 42.21MB Kongsberg multibeam vendor format
0049_20150812_144944_Atlantis.all.mb58.gz 42.20MB Kongsberg multibeam vendor format
0050_20150812_154944_Atlantis.all.mb58.gz 43.02MB Kongsberg multibeam vendor format
0051_20150812_164941_Atlantis.all.mb58.gz 42.75MB Kongsberg multibeam vendor format
0052_20150812_174942_Atlantis.all.mb58.gz 43.19MB Kongsberg multibeam vendor format
0053_20150812_184943_Atlantis.all.mb58.gz 43.93MB Kongsberg multibeam vendor format
0054_20150812_194937_Atlantis.all.mb58.gz 42.08MB Kongsberg multibeam vendor format
0055_20150812_204944_Atlantis.all.mb58.gz 41.01MB Kongsberg multibeam vendor format
0056_20150812_214946_Atlantis.all.mb58.gz 42.73MB Kongsberg multibeam vendor format
0057_20150812_224939_Atlantis.all.mb58.gz 42.03MB Kongsberg multibeam vendor format
0058_20150812_234939_Atlantis.all.mb58.gz 43.45MB Kongsberg multibeam vendor format
0059_20150813_004945_Atlantis.all.mb58.gz 43.24MB Kongsberg multibeam vendor format
0060_20150813_014945_Atlantis.all.mb58.gz 42.61MB Kongsberg multibeam vendor format
0061_20150813_024940_Atlantis.all.mb58.gz 44.68MB Kongsberg multibeam vendor format
0062_20150813_034942_Atlantis.all.mb58.gz 43.29MB Kongsberg multibeam vendor format
0063_20150813_044940_Atlantis.all.mb58.gz 42.57MB Kongsberg multibeam vendor format
0064_20150813_054944_Atlantis.all.mb58.gz 43.72MB Kongsberg multibeam vendor format
0065_20150813_064936_Atlantis.all.mb58.gz 42.98MB Kongsberg multibeam vendor format
0066_20150813_074940_Atlantis.all.mb58.gz 42.17MB Kongsberg multibeam vendor format
0067_20150813_084948_Atlantis.all.mb58.gz 41.83MB Kongsberg multibeam vendor format
0068_20150813_094942_Atlantis.all.mb58.gz 41.93MB Kongsberg multibeam vendor format
0069_20150813_104941_Atlantis.all.mb58.gz 42.11MB Kongsberg multibeam vendor format
0070_20150813_114950_Atlantis.all.mb58.gz 39.98MB Kongsberg multibeam vendor format
0071_20150813_185810_Atlantis.all.mb58.gz 42.87MB Kongsberg multibeam vendor format
0072_20150813_195817_Atlantis.all.mb58.gz 42.46MB Kongsberg multibeam vendor format
0073_20150813_205812_Atlantis.all.mb58.gz 42.87MB Kongsberg multibeam vendor format
0074_20150813_215815_Atlantis.all.mb58.gz 42.09MB Kongsberg multibeam vendor format
0075_20150813_225810_Atlantis.all.mb58.gz 43.48MB Kongsberg multibeam vendor format
0076_20150813_235807_Atlantis.all.mb58.gz 44.09MB Kongsberg multibeam vendor format
0077_20150814_005812_Atlantis.all.mb58.gz 44.33MB Kongsberg multibeam vendor format
0078_20150814_015815_Atlantis.all.mb58.gz 43.55MB Kongsberg multibeam vendor format
0079_20150814_025816_Atlantis.all.mb58.gz 44.35MB Kongsberg multibeam vendor format
0080_20150814_035810_Atlantis.all.mb58.gz 43.97MB Kongsberg multibeam vendor format
0081_20150814_045813_Atlantis.all.mb58.gz 43.84MB Kongsberg multibeam vendor format
0082_20150814_055812_Atlantis.all.mb58.gz 44.57MB Kongsberg multibeam vendor format
0083_20150814_065812_Atlantis.all.mb58.gz 45.31MB Kongsberg multibeam vendor format
0084_20150814_075807_Atlantis.all.mb58.gz 46.12MB Kongsberg multibeam vendor format
0085_20150814_085814_Atlantis.all.mb58.gz 45.71MB Kongsberg multibeam vendor format
0086_20150814_095817_Atlantis.all.mb58.gz 45.98MB Kongsberg multibeam vendor format
0087_20150814_105810_Atlantis.all.mb58.gz 46.32MB Kongsberg multibeam vendor format
0088_20150814_115807_Atlantis.all.mb58.gz 46.13MB Kongsberg multibeam vendor format
0089_20150814_125807_Atlantis.all.mb58.gz 4.02MB Kongsberg multibeam vendor format
0090_20150814_203405_Atlantis.all.mb58.gz 46.56MB Kongsberg multibeam vendor format
0091_20150814_213407_Atlantis.all.mb58.gz 46.84MB Kongsberg multibeam vendor format
0092_20150814_223413_Atlantis.all.mb58.gz 47.10MB Kongsberg multibeam vendor format
0093_20150814_233407_Atlantis.all.mb58.gz 47.11MB Kongsberg multibeam vendor format
0094_20150815_003408_Atlantis.all.mb58.gz 47.05MB Kongsberg multibeam vendor format
0095_20150815_013410_Atlantis.all.mb58.gz 46.77MB Kongsberg multibeam vendor format
0096_20150815_023415_Atlantis.all.mb58.gz 31.72MB Kongsberg multibeam vendor format
0097_20150815_085536_Atlantis.all.mb58.gz 46.68MB Kongsberg multibeam vendor format
0098_20150815_095536_Atlantis.all.mb58.gz 46.91MB Kongsberg multibeam vendor format
0099_20150815_105537_Atlantis.all.mb58.gz 47.00MB Kongsberg multibeam vendor format
0100_20150815_115536_Atlantis.all.mb58.gz 46.78MB Kongsberg multibeam vendor format
0101_20150815_125534_Atlantis.all.mb58.gz 46.74MB Kongsberg multibeam vendor format
0102_20150815_135533_Atlantis.all.mb58.gz 46.89MB Kongsberg multibeam vendor format
0103_20150815_145539_Atlantis.all.mb58.gz 46.71MB Kongsberg multibeam vendor format
0104_20150815_155536_Atlantis.all.mb58.gz 46.78MB Kongsberg multibeam vendor format
0105_20150815_165538_Atlantis.all.mb58.gz 46.72MB Kongsberg multibeam vendor format
0106_20150815_175536_Atlantis.all.mb58.gz 46.66MB Kongsberg multibeam vendor format
0107_20150815_185532_Atlantis.all.mb58.gz 46.59MB Kongsberg multibeam vendor format
0108_20150815_195533_Atlantis.all.mb58.gz 24.73MB Kongsberg multibeam vendor format
0109_20150816_103909_Atlantis.all.mb58.gz 9.23MB Kongsberg multibeam vendor format
0110_20150816_110603_Atlantis.all.mb58.gz 46.53MB Kongsberg multibeam vendor format
0111_20150816_120607_Atlantis.all.mb58.gz 46.52MB Kongsberg multibeam vendor format
0112_20150816_130600_Atlantis.all.mb58.gz 46.83MB Kongsberg multibeam vendor format
0113_20150816_140606_Atlantis.all.mb58.gz 46.62MB Kongsberg multibeam vendor format
0114_20150816_150604_Atlantis.all.mb58.gz 46.73MB Kongsberg multibeam vendor format
0115_20150816_160602_Atlantis.all.mb58.gz 46.69MB Kongsberg multibeam vendor format
0116_20150816_170602_Atlantis.all.mb58.gz 46.86MB Kongsberg multibeam vendor format
0117_20150816_180608_Atlantis.all.mb58.gz 46.63MB Kongsberg multibeam vendor format
0118_20150816_190603_Atlantis.all.mb58.gz 46.78MB Kongsberg multibeam vendor format
0119_20150816_200607_Atlantis.all.mb58.gz 46.73MB Kongsberg multibeam vendor format
0120_20150816_210608_Atlantis.all.mb58.gz 46.66MB Kongsberg multibeam vendor format
0121_20150816_220606_Atlantis.all.mb58.gz 46.67MB Kongsberg multibeam vendor format
0122_20150816_230605_Atlantis.all.mb58.gz 5.39MB Kongsberg multibeam vendor format
0123_20150817_081943_Atlantis.all.mb58.gz 45.21MB Kongsberg multibeam vendor format
0124_20150817_091940_Atlantis.all.mb58.gz 45.31MB Kongsberg multibeam vendor format
0125_20150817_101949_Atlantis.all.mb58.gz 45.18MB Kongsberg multibeam vendor format
0126_20150817_111940_Atlantis.all.mb58.gz 45.39MB Kongsberg multibeam vendor format
0127_20150817_121944_Atlantis.all.mb58.gz 45.24MB Kongsberg multibeam vendor format
0128_20150817_131943_Atlantis.all.mb58.gz 45.28MB Kongsberg multibeam vendor format
0129_20150817_141944_Atlantis.all.mb58.gz 45.43MB Kongsberg multibeam vendor format
0130_20150817_151944_Atlantis.all.mb58.gz 45.38MB Kongsberg multibeam vendor format
0131_20150817_161947_Atlantis.all.mb58.gz 45.28MB Kongsberg multibeam vendor format
0132_20150817_171947_Atlantis.all.mb58.gz 45.28MB Kongsberg multibeam vendor format
0133_20150817_181946_Atlantis.all.mb58.gz 45.20MB Kongsberg multibeam vendor format
0134_20150817_191939_Atlantis.all.mb58.gz 45.61MB Kongsberg multibeam vendor format
0135_20150817_201948_Atlantis.all.mb58.gz 45.65MB Kongsberg multibeam vendor format
0136_20150817_211947_Atlantis.all.mb58.gz 46.41MB Kongsberg multibeam vendor format
0137_20150817_221946_Atlantis.all.mb58.gz 46.02MB Kongsberg multibeam vendor format
0138_20150817_231943_Atlantis.all.mb58.gz 46.47MB Kongsberg multibeam vendor format
0139_20150818_001941_Atlantis.all.mb58.gz 46.49MB Kongsberg multibeam vendor format
0140_20150818_011945_Atlantis.all.mb58.gz 1.17MB Kongsberg multibeam vendor format
0141_20150818_142618_Atlantis.all.mb58.gz 46.43MB Kongsberg multibeam vendor format
0142_20150818_152618_Atlantis.all.mb58.gz 46.39MB Kongsberg multibeam vendor format
0143_20150818_162617_Atlantis.all.mb58.gz 46.64MB Kongsberg multibeam vendor format
0144_20150818_172618_Atlantis.all.mb58.gz 46.48MB Kongsberg multibeam vendor format
0145_20150818_182610_Atlantis.all.mb58.gz 46.62MB Kongsberg multibeam vendor format
0146_20150818_192612_Atlantis.all.mb58.gz 46.64MB Kongsberg multibeam vendor format
0147_20150818_202615_Atlantis.all.mb58.gz 47.16MB Kongsberg multibeam vendor format
0148_20150818_212621_Atlantis.all.mb58.gz 46.75MB Kongsberg multibeam vendor format
0149_20150818_222621_Atlantis.all.mb58.gz 46.77MB Kongsberg multibeam vendor format
0150_20150818_232615_Atlantis.all.mb58.gz 42.04MB Kongsberg multibeam vendor format
0151_20150819_042600_Atlantis.all.mb58.gz 46.19MB Kongsberg multibeam vendor format
0152_20150819_052606_Atlantis.all.mb58.gz 45.22MB Kongsberg multibeam vendor format
0153_20150819_062605_Atlantis.all.mb58.gz 45.31MB Kongsberg multibeam vendor format
0154_20150819_072601_Atlantis.all.mb58.gz 45.32MB Kongsberg multibeam vendor format
0155_20150819_082600_Atlantis.all.mb58.gz 45.38MB Kongsberg multibeam vendor format
0156_20150819_092604_Atlantis.all.mb58.gz 45.34MB Kongsberg multibeam vendor format
0157_20150819_102604_Atlantis.all.mb58.gz 26.05MB Kongsberg multibeam vendor format
0158_20150819_110034_Atlantis.all.mb58.gz 45.19MB Kongsberg multibeam vendor format
0159_20150819_120044_Atlantis.all.mb58.gz 45.21MB Kongsberg multibeam vendor format
0160_20150819_130038_Atlantis.all.mb58.gz 45.37MB Kongsberg multibeam vendor format
0161_20150819_140042_Atlantis.all.mb58.gz 45.11MB Kongsberg multibeam vendor format
0162_20150819_150041_Atlantis.all.mb58.gz 45.37MB Kongsberg multibeam vendor format
0163_20150819_160044_Atlantis.all.mb58.gz 45.25MB Kongsberg multibeam vendor format
0164_20150819_170033_Atlantis.all.mb58.gz 45.44MB Kongsberg multibeam vendor format
0165_20150819_180038_Atlantis.all.mb58.gz 45.31MB Kongsberg multibeam vendor format
0166_20150819_190040_Atlantis.all.mb58.gz 45.81MB Kongsberg multibeam vendor format
0167_20150819_200037_Atlantis.all.mb58.gz 13.31MB Kongsberg multibeam vendor format
0168_20150826_160732_Atlantis.all.mb58.gz 409.1KB Kongsberg multibeam vendor format
0169_20150829_094730_Atlantis.all.mb58.gz 46.77MB Kongsberg multibeam vendor format
0170_20150829_104739_Atlantis.all.mb58.gz 46.57MB Kongsberg multibeam vendor format
0171_20150829_114735_Atlantis.all.mb58.gz 45.21MB Kongsberg multibeam vendor format
0172_20150829_124730_Atlantis.all.mb58.gz 46.33MB Kongsberg multibeam vendor format
0173_20150829_134734_Atlantis.all.mb58.gz 46.45MB Kongsberg multibeam vendor format
0174_20150829_144732_Atlantis.all.mb58.gz 45.64MB Kongsberg multibeam vendor format
0175_20150829_154733_Atlantis.all.mb58.gz 45.39MB Kongsberg multibeam vendor format
0176_20150829_164734_Atlantis.all.mb58.gz 45.28MB Kongsberg multibeam vendor format
0177_20150829_174738_Atlantis.all.mb58.gz 45.08MB Kongsberg multibeam vendor format
0178_20150829_184732_Atlantis.all.mb58.gz 44.75MB Kongsberg multibeam vendor format
0179_20150829_194733_Atlantis.all.mb58.gz 32.57MB Kongsberg multibeam vendor format
0180_20150829_204632_Atlantis.all.mb58.gz 44.89MB Kongsberg multibeam vendor format
0181_20150829_214630_Atlantis.all.mb58.gz 45.81MB Kongsberg multibeam vendor format
0182_20150829_224628_Atlantis.all.mb58.gz 46.44MB Kongsberg multibeam vendor format
0183_20150829_234630_Atlantis.all.mb58.gz 46.35MB Kongsberg multibeam vendor format
0184_20150830_004628_Atlantis.all.mb58.gz 55.69MB Kongsberg multibeam vendor format
0185_20150830_014629_Atlantis.all.mb58.gz 65.51MB Kongsberg multibeam vendor format
0186_20150830_024627_Atlantis.all.mb58.gz 67.84MB Kongsberg multibeam vendor format
0187_20150830_034634_Atlantis.all.mb58.gz 68.93MB Kongsberg multibeam vendor format
0188_20150830_044632_Atlantis.all.mb58.gz 73.22MB Kongsberg multibeam vendor format
0189_20150830_054633_Atlantis.all.mb58.gz 79.96MB Kongsberg multibeam vendor format
0190_20150830_064629_Atlantis.all.mb58.gz 71.03MB Kongsberg multibeam vendor format
0191_20150830_074628_Atlantis.all.mb58.gz 69.59MB Kongsberg multibeam vendor format
0192_20150830_084636_Atlantis.all.mb58.gz 66.49MB Kongsberg multibeam vendor format
0193_20150830_094636_Atlantis.all.mb58.gz 62.16MB Kongsberg multibeam vendor format
0194_20150830_104633_Atlantis.all.mb58.gz 61.65MB Kongsberg multibeam vendor format
0195_20150830_114633_Atlantis.all.mb58.gz 52.05MB Kongsberg multibeam vendor format
0196_20150830_124637_Atlantis.all.mb58.gz 45.06MB Kongsberg multibeam vendor format
0197_20150830_134629_Atlantis.all.mb58.gz 45.15MB Kongsberg multibeam vendor format
0198_20150830_144631_Atlantis.all.mb58.gz 43.78MB Kongsberg multibeam vendor format
0199_20150830_154637_Atlantis.all.mb58.gz 42.40MB Kongsberg multibeam vendor format
0200_20150830_164634_Atlantis.all.mb58.gz 41.76MB Kongsberg multibeam vendor format
0201_20150830_174630_Atlantis.all.mb58.gz 41.84MB Kongsberg multibeam vendor format
0202_20150830_184630_Atlantis.all.mb58.gz 41.94MB Kongsberg multibeam vendor format
0203_20150830_194628_Atlantis.all.mb58.gz 41.96MB Kongsberg multibeam vendor format
0204_20150830_204640_Atlantis.all.mb58.gz 41.82MB Kongsberg multibeam vendor format
0205_20150830_214635_Atlantis.all.mb58.gz 42.10MB Kongsberg multibeam vendor format
0206_20150830_224636_Atlantis.all.mb58.gz 41.94MB Kongsberg multibeam vendor format
0207_20150830_234630_Atlantis.all.mb58.gz 41.98MB Kongsberg multibeam vendor format
0208_20150831_004638_Atlantis.all.mb58.gz 41.79MB Kongsberg multibeam vendor format
0209_20150831_014629_Atlantis.all.mb58.gz 42.22MB Kongsberg multibeam vendor format
0210_20150831_024634_Atlantis.all.mb58.gz 42.44MB Kongsberg multibeam vendor format
0211_20150831_034632_Atlantis.all.mb58.gz 42.58MB Kongsberg multibeam vendor format
0212_20150831_044628_Atlantis.all.mb58.gz 42.79MB Kongsberg multibeam vendor format
0213_20150831_054629_Atlantis.all.mb58.gz 42.96MB Kongsberg multibeam vendor format
0214_20150831_064631_Atlantis.all.mb58.gz 42.87MB Kongsberg multibeam vendor format
0215_20150831_074631_Atlantis.all.mb58.gz 43.30MB Kongsberg multibeam vendor format
0216_20150831_084633_Atlantis.all.mb58.gz 43.60MB Kongsberg multibeam vendor format
0217_20150831_094636_Atlantis.all.mb58.gz 43.73MB Kongsberg multibeam vendor format
0218_20150831_104633_Atlantis.all.mb58.gz 33.79MB Kongsberg multibeam vendor format
9999.all.mb58.gz 125.2KB Kongsberg multibeam vendor format

Metadata Files: 2

Files File Size Description
AT30-01_Multibeam.xml NGDC created ISO metadata
em122_bag_info.tar.gz 26.4KB Additional cruise information

Water Column Sonar Data

Water Column Sonar Data Available: WCSD Map Viewer